Regional Weather Roundup
Issued by NWS Albany, NY

Home | Current Version | Previous Version | Text Only | Print | Product List | Glossary On
Versions: 1 2 3 4 5 6 7 8 9 10 11 12 13 14 15 16 17 18 19 20 21 22 23 24 25 26 27 28 29 30 31 32 33 34 35 36 37 38 39 40 41 42 43 44 45 46 47 48 49 50
600
ASUS41 KALY 211710
RWRALY

NEW YORK STATE HOURLY WEATHER ROUNDUP
NATIONAL WEATHER SERVICE ALBANY NY
100 PM EDT SAT APR 21 2018

NOTE: "FAIR" INDICATES FEW OR NO CLOUDS BELOW 12,000 FEET WITH NO
SIGNIFICANT WEATHER AND/OR NO OBSTRUCTIONS TO VISIBILITY.

NYZ032-033-038>043-046>054-057>066-NYZ062>081-082-084-211800-
EAST


CITY           SKY/WX    TMP DP  RH WIND       PRES   REMARKS
ALBANY         FAIR      52  23  32 W8G23     30.33F
GLENS FALLS    FAIR      54  19  25 N9G22     30.30F
POUGHKEEPSIE   FAIR      56  24  29 NW7       30.32F
NEWBURGH       SUNNY     55  23  28 N8G20     30.34F
MONTGOMERY     FAIR      55  23  28 N10G20    30.32F
WHITE PLAINS   FAIR      53  24  32 NW6G21    30.32F
ISLIP          FAIR      55  23  28 VRB5G18   30.33F
NEW YORK CITY  FAIR      55  25  31 NW14      30.35F
CENTRAL PARK   FAIR      56  21  25 NW7G16    30.37F
$$

NYZ005>009-017-018-044>046-055-056-211800-
CENTRAL


CITY           SKY/WX    TMP DP  RH WIND       PRES   REMARKS
FULTON         FAIR      50  28  42 NW9       30.41F
SYRACUSE       FAIR      52  23  32 NW16G23   30.40F
ROME           FAIR      52  23  32 NW17G23   30.38F
ELMIRA         FAIR      53  22  29 NW10G21   30.39F
BINGHAMTON     FAIR      48  18  30 N14G23    30.37F
MONTICELLO     FAIR      49  22  34 W15G22    30.35F
$$

NYZ026>034-041>043-087-211800-
NORTH


CITY           SKY/WX    TMP DP  RH WIND       PRES   REMARKS
WATERTOWN      FAIR      48  34  58 W12       30.39F
FORT DRUM      NOT AVBL
OGDENSBURG     FAIR      53  22  30 NW10      30.37F
MASSENA        FAIR      50  24  36 NW14      30.36F
SARANAC LAKE   FAIR      43  16  33 W9G18     30.29F
PLATTSBURGH    FAIR      52  18  26 NW14G22   30.30F
$$

NYZ001>004-010>016-019>021-085-211800-
WEST


CITY           SKY/WX    TMP DP  RH WIND       PRES   REMARKS
NIAGARA FALLS  FAIR      54  24  31 VRB6      30.44F
BUFFALO        PTSUNNY   47  25  42 SW10      30.45F
DUNKIRK        FAIR      45  28  51 NW7       30.47F
JAMESTOWN      FAIR      46  24  42 CALM      30.42F
WELLSVILLE     FAIR      49  22  34 NE10      30.40F
ROCHESTER      FAIR      53  22  29 W12       30.42F
PENN YAN       FAIR      51  19  28 NW15      30.41F
$$

             KEY
       WCI = WIND CHILL INDEX
       VSB = VISIBILITY
       HX  = HEAT INDEX
$$




USA.gov is the U.S. government's official web portal to all federal, state and local government web resources and services.